Wind_Speed
25 24 25 27 29 29 29 33 29 27 26 24 22 18 19 15 13 11 10 10 8 5 3 3 6 7 8 10 14 18 21 26 29 31 33 32 31 29 27 26 27 27 25 33
22 22 21 23 27 28 26 27 28 20 23 23 23 21 15 14 12 14 11 8 7 6 5 5 6 7 8 9 10 11 14 16 18 20 21 23 25 25 27 28 30 34 28 41
21 21 22 24 25 26 29 30 27 23 20 21 20 17 16 19 16 11 10 12 13 16 16 17 18 18 19 20 20 20 21 22 22 21 23 24 26 26 27 28 31 25 38 34
27 28 30 28 28 26 27 27 30 29 23 25 26 26 23 18 17 20 22 23 16 15 15 20 23 28 31 31 32 32 33 34 32 33 32 33 34 37 39 38 39 37 46 40
32 30 32 36 34 32 35 34 33 32 27 30 29 30 26 28 30 27 25 27 28 28 28 28 24 24 27 30 35 41 42 42 43 44 44 41 42 51 50 50 53 48 51 52
38 42 40 37 38 37 36 38 40 40 38 34 36 36 35 34 32 36 38 38 35 35 32 32 34 35 35 36 37 36 34 37 43 46 54 52 49 58 59 59 61 61 60 63
45 43 43 42 43 43 42 44 45 41 43 45 45 44 44 41 42 43 45 41 40 38 39 38 38 40 42 41 42 44 46 48 47 44 45 42 49 54 59 63 65 66 66 71
55 53 51 52 49 48 50 51 52 50 46 47 47 51 55 51 52 49 50 53 52 48 51 47 43 47 45 50 56 59 61 61 62 56 56 52 55 56 56 59 52 64 66 68
63 65 63 62 60 61 61 59 60 59 56 56 59 60 56 58 57 57 57 56 56 58 59 57 54 51 53 52 53 57 63 68 69 69 68 60 61 64 67 66 60 73 72 70
72 69 69 69 66 68 68 66 65 63 61 62 66 66 66 67 67 67 67 65 67 65 64 64 66 63 67 64 60 61 65 68 71 75 79 67 73 75 76 78 75 78 77 80
78 78 76 77 77 75 73 73 73 73 69 70 70 71 73 74 74 77 73 76 74 73 74 73 70 70 72 71 74 76 75 75 78 83 81 76 82 83 85 84 83 85 87 89
85 84 83 84 82 80 82 81 83 82 79 78 83 79 80 80 83 84 80 83 84 82 80 80 82 79 76 80 82 88 86 86 90 88 85 89 89 89 92 91 90 91 91 92
90 90 88 86 90 89 88 88 88 87 84 83 86 88 89 87 89 90 87 90 94 95 97 93 92 89 90 93 89 92 96 100 103 100 98 103 95 98 99 102 105 108 110 106
96 94 94 96 93 93 95 97 96 95 91 91 91 94 95 98 99 97 95 95 94 96 99 104 103 102 102 104 103 101 101 103 107 104 107 113 106 113 111 109 108 108 110 115
105 106 103 104 101 103 102 101 101 101 104 96 93 98 102 103 105 104 103 106 106 105 102 104 106 111 116 112 110 109 117 116 118 114 111 116 114 121 120 116 119 122 121 120
110 110 109 110 109 109 110 109 108 108 108 106 101 100 104 110 113 112 107 109 110 111 113 109 109 116 123 124 122 118 120 124 128 129 125 124 122 124 123 122 124 125 125 125
121 119 116 115 114 114 115 114 114 116 118 117 112 107 105 110 117 116 118 117 111 116 119 118 122 123 127 132 131 128 131 132 133 133 132 131 127 124 123 125 126 124 129 127
128 126 125 123 122 122 122 121 122 124 124 126 124 119 116 116 118 120 119 121 124 125 126 126 130 134 139 142 140 141 139 136 133 132 128 128 126 123 123 126 128 127 128 128
136 133 132 132 132 131 131 131 130 130 131 132 128 127 128 126 124 125 127 127 128 133 135 135 140 142 148 148 149 144 142 136 131 126 127 127 126 126 126 124 121 121 121 121
141 141 139 137 132 130 131 132 134 134 135 132 134 136 134 134 134 134 134 137 141 142 141 143 142 139 135 135 134 133 133 133 135 133 126 121 118 115 112 111 112 111 110 111
145 145 144 139 135 134 135 135 134 133 133 137 139 140 140 141 141 140 137 136 136 130 129 128 127 130 132 131 130 131 131 128 126 118 113 111 108 106 104 104 104 106 106 105
133 133 135 137 138 138 137 137 138 138 138 136 136 136 138 138 138 136 135 132 130 128 128 129 128 128 122 118 115 116 119 118 116 114 108 104 101 101 101 99 98 100 99 96
121 123 126 128 130 130 132 135 134 134 134 137 138 139 136 137 135 133 130 130 129 121 119 118 117 107 105 108 110 112 112 107 105 104 103 101 98 97 94 89 89 88 86 88
108 110 113 115 116 116 118 119 120 122 122 123 121 120 122 118 115 116 114 112 112 111 108 106 100 102 103 101 101 100 102 102 99 95 90 87 84 82 81 80 79 79 78 79
101 101 100 101 105 106 105 107 108 110 111 111 111 109 107 106 106 103 102 101 96 97 98 96 95 93 93 92 90 89 88 87 86 84 82 79 77 74 71 71 72 73 71 71
87 88 88 91 92 94 95 96 96 96 99 99 98 97 97 96 95 96 95 90 88 88 84 83 81 81 81 79 77 77 76 76 73 71 71 70 70 69 67 67 67 63 62 62
74 75 76 78 79 80 79 80 80 80 81 82 82 83 82 81 83 84 80 77 75 72 72 73 73 73 71 70 68 66 65 63 62 61 61 61 62 60 60 58 58 56 54 55
Wind_Direction
352 358 359 1 12 12 22 25 27 37 52 56 52 45 42 50 52 59 59 61 77 86 119 197 232 248 251 264 266 265 265 266 266 266 264 263 264 264 264 266 270 265 263 271
326 335 341 348 343 347 356 359 7 37 39 37 36 32 39 28 16 12 355 343 332 326 305 280 266 263 268 278 281 277 270 268 264 266 270 272 273 271 272 272 272 271 274 269
304 313 315 326 330 335 339 339 341 343 354 2 10 21 20 21 22 15 356 328 314 308 296 294 291 287 286 286 284 282 282 281 283 280 280 279 280 278 276 276 275 278 280 280
302 303 304 302 305 311 315 325 321 326 332 340 330 329 337 341 335 338 340 340 348 347 339 322 296 289 285 284 281 281 281 280 279 278 277 277 279 277 275 273 273 274 275 280
294 296 297 297 293 299 301 301 306 310 308 312 314 316 321 316 317 323 320 317 320 318 317 318 319 301 302 298 290 282 278 277 276 277 275 274 276 277 274 275 277 272 273 276
280 287 285 292 295 287 289 290 301 300 301 302 303 301 300 302 303 303 304 306 307 309 313 306 305 307 307 304 306 299 294 292 285 287 279 275 275 275 276 276 275 275 276 277
278 279 277 278 280 287 283 286 287 290 292 296 296 295 298 292 295 295 296 295 295 299 303 304 305 304 297 297 299 302 300 297 295 290 289 293 288 285 285 280 280 281 280 279
272 273 279 274 274 277 282 283 284 281 282 286 290 295 293 293 292 293 290 293 292 287 288 298 302 295 300 299 297 294 295 294 295 294 290 293 293 289 288 286 286 285 283 283
267 267 273 275 275 276 278 277 280 282 283 285 284 284 287 288 284 282 290 284 288 286 284 283 291 292 291 294 295 294 294 295 293 292 288 290 288 288 287 283 287 285 287 287
265 267 269 271 274 278 277 275 275 277 279 282 285 286 281 281 283 284 281 286 285 284 282 286 285 287 290 293 293 287 284 283 286 288 288 286 287 285 284 286 284 286 288 286
262 264 264 267 269 273 276 273 274 273 278 274 279 278 281 281 280 281 282 279 282 285 284 281 286 288 287 289 288 289 288 286 285 286 291 288 283 283 282 283 285 285 286 287
262 262 264 265 266 268 270 272 275 275 274 276 276 279 275 277 276 279 280 278 278 280 283 282 287 288 288 290 289 283 282 283 286 287 288 285 282 284 283 282 282 279 278 280
261 261 263 266 266 268 266 270 270 270 270 271 273 275 276 276 276 277 279 280 282 280 279 282 284 286 286 288 290 283 281 282 284 283 284 285 286 284 283 281 283 284 285 285
261 262 262 264 265 265 267 268 270 268 269 269 271 272 275 276 278 276 274 277 276 279 280 281 280 283 285 286 285 286 282 282 282 282 281 281 282 281 282 283 285 284 282 281
265 264 262 263 266 264 265 265 268 269 269 271 269 273 274 276 278 277 276 274 273 276 281 279 280 281 281 283 285 283 282 283 285 287 285 283 281 281 282 284 282 282 282 282
264 265 264 264 266 266 267 270 270 269 268 271 272 272 275 275 276 275 276 275 275 275 278 277 279 282 279 279 283 283 284 285 287 286 287 285 285 282 282 282 282 282 282 282
263 265 265 264 263 265 268 268 269 271 272 274 272 270 272 270 273 274 276 275 275 278 278 276 277 279 279 280 282 284 283 284 283 285 286 286 285 283 283 282 282 283 283 283
264 264 264 264 265 266 268 268 269 271 271 272 274 273 272 273 273 270 273 273 274 274 276 278 279 279 279 281 284 286 285 284 284 283 283 284 284 284 285 284 283 283 282 282
263 263 264 264 265 266 268 268 268 268 269 271 272 273 272 273 274 272 271 273 273 275 274 275 279 281 281 282 283 284 284 285 285 285 284 284 284 283 283 283 282 282 283 283
264 265 265 266 267 267 267 266 266 268 270 270 272 272 272 273 273 272 272 272 274 275 276 278 279 280 281 282 282 282 283 284 285 286 286 285 283 283 283 283 284 285 284 285
264 264 265 266 265 266 267 268 269 269 269 269 271 273 274 275 277 277 277 278 279 280 281 282 283 284 284 284 284 284 285 286 285 286 286 285 285 285 285 285 285 285 284 283
266 266 266 265 266 267 268 270 271 271 271 272 272 273 274 276 278 279 280 280 281 282 281 283 282 282 282 282 284 287 286 286 286 286 285 285 286 287 286 284 283 282 283 282
267 265 265 266 268 269 270 271 271 271 272 274 276 276 277 277 279 280 281 282 282 283 283 283 283 285 287 287 287 285 283 284 286 288 288 286 286 286 286 285 284 283 283 281
264 264 264 265 267 268 269 270 272 273 275 274 275 276 277 277 278 279 280 280 280 281 282 283 286 286 285 284 282 284 285 285 285 286 286 285 285 287 287 286 283 281 280 278
262 263 264 266 267 268 269 270 272 273 273 274 276 277 277 277 278 280 281 282 283 283 283 282 281 282 282 282 282 282 283 284 285 286 289 290 289 287 287 284 282 282 281 280
265 266 266 267 267 268 269 271 271 272 272 273 275 276 277 279 280 280 280 280 280 281 283 285 285 283 280 280 283 283 284 286 288 288 287 287 286 285 284 283 283 284 285 287
265 266 267 267 268 269 269 270 272 273 274 275 276 277 277 276 275 277 281 283 284 287 286 283 280 282 285 286 286 287 288 288 287 285 286 286 285 285 284 286 287 288 286 284
Height
10676 10674 10672 10671 10668 10666 10663 10662 10660 10659 10657 10655 10653 10652 10651 10652 10651 10650 10650 10649 10649 10648 10647 10648 10650 10649 10649 10648 10646 10645 10644 10643 10643 10641 10641 10639 10637 10635 10633 10632 10630 10629 10631 10627
10674 10673 10673 10670 10668 10666 10665 10663 10662 10660 10659 10657 10656 10655 10654 10653 10652 10651 10651 10651 10650 10650 10650 10650 10648 10647 10646 10645 10643 10642 10641 10640 10638 10637 10635 10634 10631 10630 10628 10626 10624 10621 10624 10614
10672 10670 10670 10668 10667 10664 10663 10662 10661 10660 10659 10658 10657 10656 10655 10654 10653 10652 10650 10650 10649 10648 10648 10647 10646 10645 10644 10642 10640 10638 10635 10633 10632 10631 10629 10628 10625 10624 10621 10620 10616 10618 10609 10612
10667 10666 10665 10663 10663 10662 10660 10659 10658 10657 10656 10656 10654 10653 10653 10651 10650 10650 10649 10648 10646 10645 10643 10641 10640 10639 10638 10636 10634 10632 10630 10627 10626 10624 10623 10621 10619 10615 10612 10612 10609 10610 10600 10604
10660 10659 10658 10657 10657 10656 10655 10654 10653 10652 10652 10650 10650 10649 10648 10647 10645 10644 10643 10641 10640 10639 10637 10635 10634 10632 10630 10627 10625 10623 10622 10619 10616 10613 10612 10613 10611 10600 10600 10599 10594 10596 10591 10589
10651 10650 10650 10650 10649 10648 10647 10646 10645 10646 10644 10644 10642 10641 10641 10639 10638 10636 10635 10634 10632 10631 10630 10628 10626 10623 10621 10620 10616 10614 10611 10608 10607 10606 10599 10601 10602 10584 10586 10585 10579 10577 10577 10571
10640 10640 10640 10639 10639 10639 10638 10637 10636 10636 10635 10633 10633 10632 10632 10631 10629 10628 10625 10625 10623 10620 10618 10618 10617 10615 10612 10609 10606 10602 10599 10594 10593 10595 10589 10590 10584 10577 10570 10565 10561 10557 10560 10551
10626 10626 10627 10627 10627 10626 10625 10625 10625 10625 10626 10623 10620 10620 10618 10617 10616 10614 10613 10611 10610 10609 10607 10606 10605 10603 10600 10597 10595 10589 10584 10580 10577 10576 10573 10577 10572 10561 10559 10550 10554 10539 10539 10533
10610 10611 10612 10612 10613 10612 10613 10612 10611 10611 10611 10611 10607 10606 10605 10604 10602 10602 10599 10597 10594 10593 10592 10590 10592 10590 10586 10586 10582 10573 10566 10559 10558 10556 10555 10560 10551 10545 10539 10535 10542 10523 10521 10518
10591 10593 10594 10595 10595 10595 10595 10595 10595 10594 10596 10596 10591 10590 10587 10586 10584 10583 10584 10579 10576 10574 10573 10573 10573 10573 10568 10568 10565 10562 10552 10545 10538 10530 10528 10544 10530 10524 10516 10514 10516 10509 10505 10498
10570 10572 10574 10574 10576 10575 10576 10576 10575 10575 10579 10579 10575 10571 10569 10568 10565 10564 10566 10559 10558 10553 10551 10551 10550 10553 10549 10550 10544 10538 10530 10523 10521 10512 10510 10516 10506 10498 10490 10490 10490 10487 10481 10475
10547 10549 10550 10553 10554 10554 10555 10555 10553 10555 10557 10558 10553 10552 10547 10547 10544 10541 10545 10538 10535 10534 10530 10527 10526 10528 10526 10525 10522 10511 10506 10500 10492 10494 10489 10482 10478 10473 10467 10463 10464 10460 10456 10452
10523 10524 10525 10527 10529 10529 10530 10531 10529 10531 10536 10536 10533 10528 10523 10524 10520 10517 10520 10516 10506 10510 10504 10505 10505 10504 10497 10496 10499 10487 10479 10472 10468 10462 10463 10450 10455 10443 10439 10432 10433 10432 10425 10419
10496 10499 10500 10501 10502 10503 10503 10504 10503 10502 10507 10514 10511 10501 10501 10496 10494 10492 10493 10489 10486 10480 10477 10478 10479 10473 10470 10469 10466 10459 10448 10442 10433 10441 10441 10418 10432 10406 10404 10405 10399 10395 10391 10380
10466 10469 10470 10472 10472 10473 10474 10475 10474 10475 10473 10482 10490 10479 10470 10467 10467 10464 10461 10459 10458 10454 10451 10449 10447 10440 10429 10432 10432 10439 10412 10413 10403 10405 10403 10389 10398 10377 10367 10374 10366 10358 10350 10346
10433 10435 10438 10440 10441 10441 10440 10444 10444 10441 10439 10446 10456 10463 10449 10437 10433 10431 10429 10426 10426 10423 10422 10420 10414 10403 10391 10390 10397 10397 10387 10382 10372 10364 10365 10350 10350 10339 10335 10332 10327 10318 10311 10305
10397 10401 10404 10406 10407 10407 10406 10408 10412 10408 10401 10403 10414 10424 10427 10415 10401 10395 10394 10394 10391 10387 10383 10384 10377 10370 10350 10343 10350 10366 10355 10345 10335 10330 10326 10309 10308 10303 10296 10288 10281 10280 10267 10261
10362 10365 10368 10371 10372 10372 10371 10373 10374 10373 10370 10365 10371 10381 10383 10379 10377 10374 10367 10362 10356 10350 10340 10341 10334 10330 10311 10302 10312 10310 10309 10308 10303 10294 10290 10276 10265 10258 10252 10247 10239 10230 10223 10216
10323 10327 10332 10334 10335 10336 10336 10335 10335 10333 10332 10330 10339 10340 10335 10342 10342 10340 10333 10326 10322 10317 10315 10305 10296 10293 10274 10274 10270 10262 10254 10251 10249 10247 10243 10236 10226 10217 10209 10203 10198 10191 10183 10177
10282 10285 10290 10293 10295 10295 10296 10295 10295 10297 10293 10294 10296 10295 10301 10299 10301 10298 10293 10288 10281 10277 10277 10270 10261 10245 10241 10234 10227 10222 10216 10212 10204 10200 10193 10185 10180 10175 10168 10163 10155 10150 10142 10137
10242 10245 10248 10251 10252 10253 10255 10256 10259 10254 10257 10256 10257 10257 10259 10255 10252 10249 10242 10239 10235 10238 10233 10226 10221 10211 10195 10185 10185 10177 10172 10167 10162 10153 10144 10139 10139 10138 10134 10129 10122 10115 10110 10103
10201 10205 10206 10209 10210 10213 10214 10218 10218 10216 10214 10218 10216 10219 10218 10214 10209 10203 10198 10199 10196 10196 10189 10186 10179 10167 10162 10159 10155 10145 10130 10120 10113 10106 10107 10107 10108 10106 10103 10097 10088 10077 10071 10065
10165 10166 10170 10171 10171 10173 10180 10181 10177 10173 10179 10180 10175 10175 10175 10171 10172 10167 10163 10159 10156 10152 10146 10138 10127 10132 10133 10123 10114 10105 10089 10083 10083 10083 10077 10073 10068 10064 10060 10061 10051 10047 10044 10034
10128 10130 10132 10135 10139 10141 10143 10145 10144 10144 10144 10143 10139 10136 10140 10136 10134 10129 10127 10124 10122 10119 10114 10106 10105 10101 10090 10085 10077 10072 10064 10057 10051 10049 10047 10043 10041 10039 10033 10027 10020 10014 10011 10005
10098 10099 10102 10108 10110 10110 10111 10111 10111 10112 10112 10110 10107 10107 10105 10101 10099 10097 10092 10088 10092 10084 10078 10077 10073 10070 10063 10055 10050 10044 10038 10033 10027 10023 10021 10017 10012 10008 10006 9998 9992 9987 9987 9984
10070 10073 10078 10080 10080 10080 10081 10083 10085 10087 10081 10079 10078 10076 10073 10071 10071 10066 10061 10061 10058 10053 10052 10049 10046 10037 10029 10026 10025 10022 10017 10013 10010 10005 9999 9994 9987 9982 9978 9972 9967 9967 9966 9963
10050 10052 10054 10053 10053 10053 10058 10059 10059 10058 10057 10054 10052 10050 10047 10043 10038 10034 10036 10036 10033 10034 10029 10021 10014 10010 10008 10005 10003 9999 9996 9991 9987 9983 9978 9972 9966 9962 9958 9956 9951 9951 9948 9943